This is the latest recevied weather packets stored in our database for station/object KC5AV. If no packets are shown the sender has not sent any weather packets the latest 10 day(s).
| Time | Temp. | Humidity | Pressure | Rain* | Wind** | Luminosity | Snow |
|---|---|---|---|---|---|---|---|
| 1778006403 | 28.33° C | 67% | 1008.1 hPa | 0 mm | - | 718 W/m² | - |
| 1778006101 | 27.78° C | 69% | 1008 hPa | 0 mm | - | 455 W/m² | - |
| 1778005797 | 28.33° C | 68% | 1008.1 hPa | 0 mm | - | 409 W/m² | - |
| 1778005494 | 27.78° C | 71% | 1007.9 hPa | 0 mm | - | 417 W/m² | - |
| 1778005190 | 27.78° C | 70% | 1008 hPa | 0 mm | - | 418 W/m² | - |
| 1778004888 | 27.78° C | 70% | 1008 hPa | 0 mm | - | 450 W/m² | - |
| 1778004584 | 27.78° C | 70% | 1007.7 hPa | 0 mm | - | 1091 W/m² | - |
| 1778004280 | 27.78° C | 70% | 1007.9 hPa | 0 mm | - | 1101 W/m² | - |
| 1778003978 | 27.22° C | 70% | 1007.9 hPa | 0 mm | - | 346 W/m² | - |
| 1778003674 | 27.78° C | 69% | 1008 hPa | 0 mm | - | 355 W/m² | - |
| 1778003370 | 27.22° C | 73% | 1008 hPa | 0 mm | - | 525 W/m² | - |
| 1778003068 | 26.67° C | 71% | 1008.1 hPa | 0 mm | - | 374 W/m² | - |
| 1778002764 | 26.67° C | 74% | 1008.1 hPa | 0 mm | - | 449 W/m² | - |
| 1778002460 | 26.11° C | 74% | 1008.1 hPa | 0 mm | - | 310 W/m² | - |
| 1778002158 | 26.67° C | 73% | 1008.4 hPa | 0 mm | - | 260 W/m² | - |
| 1778001855 | 26.11° C | 74% | 1008.2 hPa | 0 mm | - | 448 W/m² | - |
| 1778001555 | 26.11° C | 75% | 1008.1 hPa | 0 mm | - | 355 W/m² | - |
| 1778001252 | 26.11° C | 75% | 1008.1 hPa | 0 mm | - | 409 W/m² | - |
| 1778000948 | 25.56° C | 75% | 1008.1 hPa | 0 mm | - | 327 W/m² | - |
| 1778000645 | 25.56° C | 76% | 1008.4 hPa | 0 mm | - | 323 W/m² | - |
| 1778000341 | 25.56° C | 77% | 1008.5 hPa | 0 mm | - | 330 W/m² | - |
| 1778000036 | 25.56° C | 76% | 1008.5 hPa | 0 mm | - | 493 W/m² | - |
| 1777999732 | 25.56° C | 76% | 1008.4 hPa | 0 mm | - | 388 W/m² | - |
| 1777999429 | 25° C | 77% | 1008.6 hPa | 0 mm | - | 446 W/m² | - |
| 1777999127 | 24.44° C | 80% | 1008.5 hPa | 0 mm | - | 435 W/m² | - |
* Rain latest hour (hover to see other rain measurements)
** Current wind speed in m/s (hover to see current wind gust speed)